ORBCOMM FM16 [-] (25417 NORAD) Tracking and Keplerian Element Data

This shows tracking and keplerian element data for the satellite.

Feedback or suggestion? Click here.




ElementValue
Catalog25417
NameORBCOMM FM16 [-]
Epoch Orbit30929
Epoch Day238.91868883
Epoch Year2023
RAAN57.6922
Inclination44.9954
Eccentricity0.0003885
Argument of Perigee210.5067
Mean Anonmoly149.5555
Mean Motion14.34982091
Decay Rate1.397E-05
L11 25417U 98046E 23238.91868883 .00001397 00000+0 53544-3 0 9998
L22 25417 44.9954 57.6922 0003885 210.5067 149.5555 14.34982091309290



Live tracking and technical data element details for ORBCOMM FM16 [-] (NORAD 25417). ORBCOMM FM16 [-] can be tracked NOW for your location showing map with azimuth and elevation plus other details from your city location.







IsCatalogInMostPopularTable: catalog: 25417, numindb: 377
Update: records affected: 1



GetName: 25417 ORBCOMM FM16 [-]

Hit Count: updated at: Fri, 16 May 2025 10:33:27 GMT